Preview of NWS' New Version of Forecast
This preview is not operational and should not be used for support decisions.

Regional Weather Roundup (RWR)

Issued by National Weather Service (NWS)

                            
000
ASUS45 KABQ 250910
RWRNM 
NEW MEXICO REGIONAL WEATHER ROUNDUP
NATIONAL WEATHER SERVICE ALBUQUERQUE NM
300 AM MDT SUN AUG 25 2019

NOTE: "FAIR" MEANS FEW OR NO CLOUDS BELOW 12,000 FEET AGL WITH NO
       SIGNIFICANT WEATHER OR OBSTRUCTIONS TO VISION.

      THIS PRODUCT IS RELEASED AS TWO VERSIONS.  ONE VERSION NEAR
      THE TOP OF THE HOUR CONTAINING PRELIMINARY DATA FROM ALBUQUERQUE
      AND OTHER STATIONS.  A FINAL VERSION WITH ADDITIONAL DATA IS 
      ISSUED ABOUT 10 MINUTES AFTER THE HOUR.
 
NMZ501-503-504-510>518-251000-
NORTHWEST PLATEAU/NORTHCENTRAL MOUNTAINS
  
CITY           SKY/WX    TMP DP  RH WIND       PRES   REMARKS
FARMINGTON     FAIR      60  26  27 NE5       30.11S                  
LOS ALAMOS       N/A     72  25  17 CALM      30.22S                  
SANTA FE       FAIR      65  28  24 NW5       30.14S                  
TAOS           FAIR      54  34  46 NW5       30.23F                  
ANGEL FIRE     FAIR      35  31  83 CALM      30.33S                  

$$
NMZ402-403-502-505>509-251000-
WESTCENTRAL MOUNTAINS/SOUTHWEST MOUNTAINS
  
CITY           SKY/WX    TMP DP  RH WIND       PRES   REMARKS
GALLUP         FAIR      56  27  32 NE3       30.23S                  
GRANTS         FAIR      58  30  34 CALM      30.24S                  
SILVER CITY    FAIR      69  55  61 N10       30.16S                  

$$
NMZ407-409-411-412-251000-
SOUTHERN DESERTS
  
CITY           SKY/WX    TMP DP  RH WIND       PRES   REMARKS
DEMING         FAIR      75  61  61 SW12      30.08F                  
LAS CRUCES     FAIR      75  60  60 W13       30.07S                  
HOLLOMAN AFB   FAIR      78  53  41 SE10      30.03R                  
ALAMOGORDO     FAIR      77  50  38 S12       30.03R                  
T OR C         FAIR      79  46  31 W15       30.06S                  

$$
NMZ519>523-251000-
CENTRAL VALLEYS/CENTRAL HIGHLANDS
  
CITY           SKY/WX    TMP DP  RH WIND       PRES   REMARKS
ALBUQUERQUE    FAIR      68  32  26 E6        30.09S                  
DOUBLE EAGLE   FAIR      71  32  24 NW9       30.12S                  
MORIARTY ARPT  FAIR      53  32  46 NE3       30.15S                  
CLINES CORNERS FAIR      61  28  28 W9        30.20F                  
BELEN          FAIR      72  31  22 SE5       30.09S                  
SOCORRO        FAIR      73  34  24 E7        30.06S                  

$$
NMZ524>526-539-540-251000-
SOUTHCENTRAL MOUNTAINS
  
CITY           SKY/WX    TMP DP  RH WIND       PRES   REMARKS
RUIDOSO        FAIR      66  45  45 W9        30.22F                  

$$
NMZ527>531-251000-
NORTHEAST HIGHLANDS/NORTHEAST PLAINS
  
CITY           SKY/WX    TMP DP  RH WIND       PRES   REMARKS
LAS VEGAS      FAIR      63  30  28 NE8       30.15F                  
RATON          FAIR      55  45  68 NE5       30.10F                  
CLAYTON        FAIR      62  60  93 N5        30.00F                  

$$
NMZ532>537-251000-
EASTCENTRAL PLAINS
  
CITY           SKY/WX    TMP DP  RH WIND       PRES   REMARKS
SANTA ROSA     FAIR      72  44  36 CALM      29.98R                  
TUCUMCARI      FAIR      74  57  55 SW8       29.89S                  
CANNON AFB     FAIR      72  61  68 S10       29.97F                  
CLOVIS AIRPORT FAIR      66  63  90 S7        29.97F                  

$$
NMZ028-029-538-251000-
SOUTHEAST PLAINS
  
CITY           SKY/WX    TMP DP  RH WIND       PRES   REMARKS
ROSWELL        FAIR      79  55  43 S10       29.93F                  
ARTESIA        FAIR      77  57  50 S9        29.95F                  
CARLSBAD       FAIR      75  54  47 SE3       29.92F                  
HOBBS          FAIR      73  63  68 S8        29.96F                  


$$